User: anonymous   Login
Location: Caltech
(34.1382°N, 118.1253°W)
Time: 00:22:47
(UTC-07:00)
Language:

Iridium 70 - Orbit

View from above orbital plane
View from above orbital plane
View from above satellite
View from above satellite

Ground track
Ground track

The orbit data is extracted from the following two-line orbital elements,

1 25342U 98032A   17149.88127006 +.00000177 +00000-0 +56143-4 0  9990
2 25342 086.3996 231.8876 0002483 094.6602 024.5171 14.34216160996190
Epoch (UTC): 29 May 2017 21:09:01
Eccentricity: 0.0002483
inclination: 86.3996°
perigee height: 776 km
apogee height: 779 km
right ascension of ascending node: 231.8876°
argument of perigee: 94.6602°
revolutions per day: 14.34216160
mean anomaly at epoch: 24.5171°
orbit number at epoch: 99619

The dashed part of the orbit path shows where the satellite is in the earth's shadow,  

DLR